When you browse on this site, cookies collect data to enhance your experience and personalize the content and advertising you see.
Visit our Privacy Policy to learn more. By continuing to use the site, you agree to this use of cookies and data.
  • In Hungary
  • List of Countries
  • For 7 days
  • Water Temperature
  • Weather Map
  • News
  • Weather Widgets
  • user-avatar
    Login

    Hourly Weather Kudinovo

    Today, 23 August, Friday

    Time Temperature Precipitation Wind Pressure Humidity
    00:00 +15°C° 0 mm 2 mps 756 mmHg 87%
    01:00 +14°C° 0 mm 2 mps 757 mmHg 88%
    02:00 +14°C° 0 mm 2 mps 757 mmHg 89%
    03:00 +14°C° 0 mm 2 mps 757 mmHg 90%
    04:00 +13°C° 0 mm 2 mps 757 mmHg 90%
    05:00 +13°C° 0 mm 2 mps 757 mmHg 89%
    06:00 +13°C° 0 mm 2 mps 757 mmHg 89%
    07:00 +15°C° 0 mm 2 mps 758 mmHg 81%
    08:00 +18°C° 0 mm 1 mps 758 mmHg 74%
    09:00 +19°C° 0 mm 1 mps 759 mmHg 66%
    10:00 +21°C° 0 mm 1 mps 758 mmHg 61%
    11:00 +21°C° 0 mm 2 mps 758 mmHg 55%
    12:00 +23°C° 0 mm 2 mps 758 mmHg 49%
    13:00 +24°C° 0 mm 2 mps 758 mmHg 47%
    14:00 +24°C° 0 mm 2 mps 758 mmHg 45%
    15:00 +25°C° 0 mm 2 mps 758 mmHg 43%
    16:00 +24°C° 0 mm 2 mps 757 mmHg 48%
    17:00 +24°C° 0 mm 1 mps 757 mmHg 52%
    18:00 +23°C° 0 mm 1 mps 757 mmHg 56%
    19:00 +21°C° 0 mm 1 mps 757 mmHg 62%
    20:00 +19°C° 0 mm 1 mps 757 mmHg 68%
    21:00 +16°C° 0 mm 1 mps 757 mmHg 73%
    22:00 +16°C° 0 mm 1 mps 757 mmHg 76%
    23:00 +15°C° 0 mm 1 mps 757 mmHg 79%

    Tomorrow, 24 August, Saturday

    Time Temperature Precipitation Wind Pressure Humidity
    00:00 +15°C° 0 mm 1 mps 757 mmHg 81%
    01:00 +14°C° 0 mm 0 mps 757 mmHg 83%
    02:00 +13°C° 0 mm 0 mps 757 mmHg 84%
    03:00 +13°C° 0 mm 0 mps 757 mmHg 86%
    04:00 +14°C° 0 mm 1 mps 757 mmHg 86%
    05:00 +14°C° 0 mm 1 mps 756 mmHg 86%
    06:00 +14°C° 0 mm 1 mps 756 mmHg 86%
    07:00 +16°C° 0 mm 2 mps 756 mmHg 79%
    08:00 +17°C° 0 mm 2 mps 756 mmHg 73%
    09:00 +19°C° 0 mm 3 mps 756 mmHg 66%
    10:00 +20°C° 0 mm 3 mps 756 mmHg 61%
    11:00 +21°C° 0 mm 4 mps 755 mmHg 57%
    12:00 +22°C° 0 mm 4 mps 755 mmHg 52%
    13:00 +23°C° 0 mm 4 mps 755 mmHg 51%
    14:00 +23°C° 0 mm 4 mps 754 mmHg 50%
    15:00 +25°C° 0 mm 4 mps 754 mmHg 48%
    16:00 +23°C° 0 mm 4 mps 754 mmHg 53%
    17:00 +23°C° 0 mm 4 mps 753 mmHg 57%
    18:00 +22°C° 0 mm 3 mps 753 mmHg 62%
    19:00 +21°C° 0 mm 3 mps 753 mmHg 66%
    20:00 +20°C° 0 mm 3 mps 753 mmHg 70%
    21:00 +18°C° 0 mm 3 mps 753 mmHg 73%
    22:00 +18°C° 0 mm 3 mps 753 mmHg 77%
    23:00 +17°C° 0 mm 2 mps 753 mmHg 81%

    Day after tomorrow, 25 August, Sunday

    Time Temperature Precipitation Wind Pressure Humidity
    00:00 +16°C° 0 mm 2 mps 753 mmHg 85%
    01:00 +16°C° 0 mm 2 mps 753 mmHg 87%
    02:00 +15°C° 0 mm 2 mps 753 mmHg 90%
    03:00 +15°C° 0 mm 2 mps 753 mmHg 92%
    04:00 +14°C° 0 mm 2 mps 754 mmHg 92%
    05:00 +14°C° 0 mm 2 mps 754 mmHg 92%
    06:00 +13°C° 0 mm 2 mps 754 mmHg 92%
    07:00 +14°C° 0 mm 3 mps 754 mmHg 86%
    08:00 +16°C° 0 mm 3 mps 754 mmHg 79%
    09:00 +17°C° 0 mm 3 mps 754 mmHg 73%
    10:00 +18°C° 0 mm 3 mps 755 mmHg 68%
    11:00 +19°C° 0 mm 3 mps 755 mmHg 64%
    12:00 +19°C° 0 mm 4 mps 755 mmHg 60%
    13:00 +20°C° 0 mm 4 mps 756 mmHg 60%
    14:00 +20°C° 0 mm 4 mps 756 mmHg 60%
    15:00 +20°C° 0 mm 4 mps 756 mmHg 60%
    16:00 +19°C° 0 mm 4 mps 756 mmHg 64%
    17:00 +18°C° 0 mm 3 mps 756 mmHg 67%
    18:00 +17°C° 0 mm 3 mps 756 mmHg 71%
    19:00 +16°C° 0 mm 2 mps 757 mmHg 77%
    20:00 +14°C° 0 mm 2 mps 757 mmHg 82%
    21:00 +13°C° 0 mm 1 mps 757 mmHg 88%
    22:00 +13°C° 0 mm 1 mps 757 mmHg 89%
    23:00 +13°C° 0 mm 1 mps 758 mmHg 90%

    26 August, Monday

    Time Temperature Precipitation Wind Pressure Humidity
    00:00 +12°C° 0 mm 1 mps 758 mmHg 92%
    01:00 +12°C° 0 mm 1 mps 758 mmHg 92%
    02:00 +12°C° 0 mm 1 mps 758 mmHg 92%
    03:00 +11°C° 0 mm 0 mps 759 mmHg 93%
    04:00 +11°C° 0 mm 0 mps 759 mmHg 93%
    05:00 +11°C° 0 mm 0 mps 759 mmHg 93%
    06:00 +11°C° 0 mm 0 mps 759 mmHg 93%
    07:00 +12°C° 0 mm 0 mps 759 mmHg 86%
    08:00 +14°C° 0 mm 0 mps 759 mmHg 79%
    09:00 +18°C° 0 mm 1 mps 759 mmHg 72%
    10:00 +20°C° 0 mm 1 mps 759 mmHg 66%
    11:00 +21°C° 0 mm 1 mps 759 mmHg 59%
    12:00 +22°C° 0 mm 1 mps 759 mmHg 52%
    13:00 +23°C° 0 mm 1 mps 759 mmHg 50%
    14:00 +23°C° 0 mm 2 mps 758 mmHg 48%
    15:00 +23°C° 0 mm 2 mps 758 mmHg 45%
    16:00 +23°C° 0 mm 2 mps 758 mmHg 50%
    17:00 +21°C° 0 mm 2 mps 758 mmHg 54%
    18:00 +21°C° 0 mm 2 mps 757 mmHg 58%
    19:00 +19°C° 0 mm 2 mps 757 mmHg 63%
    20:00 +18°C° 0 mm 2 mps 757 mmHg 67%
    21:00 +16°C° 0 mm 2 mps 757 mmHg 71%
    22:00 +15°C° 0 mm 2 mps 757 mmHg 73%
    23:00 +15°C° 0 mm 2 mps 757 mmHg 76%

    27 August, Tuesday

    Time Temperature Precipitation Wind Pressure Humidity
    00:00 +15°C° 0 mm 2 mps 757 mmHg 78%
    01:00 +15°C° 0 mm 2 mps 757 mmHg 79%
    02:00 +14°C° 0 mm 2 mps 756 mmHg 81%
    03:00 +14°C° 0 mm 2 mps 756 mmHg 83%
    04:00 +14°C° 0 mm 2 mps 756 mmHg 82%
    05:00 +14°C° 0 mm 3 mps 756 mmHg 82%
    06:00 +14°C° 0 mm 3 mps 755 mmHg 82%
    07:00 +16°C° 0 mm 3 mps 755 mmHg 78%
    08:00 +17°C° 0 mm 3 mps 755 mmHg 74%
    09:00 +18°C° 0 mm 4 mps 755 mmHg 69%
    10:00 +20°C° 0 mm 4 mps 754 mmHg 64%
    11:00 +21°C° 0 mm 4 mps 754 mmHg 59%
    12:00 +23°C° 0 mm 5 mps 754 mmHg 54%
    13:00 +23°C° 0 mm 5 mps 754 mmHg 53%
    14:00 +25°C° 0 mm 5 mps 753 mmHg 52%
    15:00 +25°C° 0 mm 5 mps 753 mmHg 52%
    16:00 +23°C° 0.1 mm 5 mps 753 mmHg 57%
    17:00 +22°C° 0.1 mm 4 mps 753 mmHg 62%
    18:00 +21°C° 0.1 mm 3 mps 753 mmHg 68%
    19:00 +20°C° 0 mm 3 mps 753 mmHg 73%
    20:00 +18°C° 0 mm 3 mps 753 mmHg 78%
    21:00 +17°C° 0 mm 2 mps 754 mmHg 83%
    22:00 +16°C° 0 mm 2 mps 754 mmHg 83%
    23:00 +15°C° 0 mm 2 mps 754 mmHg 84%

    28 August, Wednesday

    Time Temperature Precipitation Wind Pressure Humidity
    00:00 +15°C° 0 mm 2 mps 755 mmHg 84%
    01:00 +14°C° 0 mm 2 mps 755 mmHg 85%
    02:00 +14°C° 0 mm 2 mps 755 mmHg 85%
    03:00 +13°C° 0 mm 2 mps 755 mmHg 85%
    04:00 +13°C° 0 mm 2 mps 755 mmHg 85%
    05:00 +12°C° 0 mm 2 mps 755 mmHg 85%
    06:00 +12°C° 0 mm 2 mps 756 mmHg 85%
    07:00 +14°C° 0 mm 2 mps 756 mmHg 79%
    08:00 +15°C° 0 mm 2 mps 756 mmHg 72%
    09:00 +17°C° 0 mm 3 mps 756 mmHg 66%
    10:00 +18°C° 0 mm 3 mps 756 mmHg 61%
    11:00 +19°C° 0 mm 3 mps 756 mmHg 55%
    12:00 +20°C° 0 mm 3 mps 756 mmHg 50%
    13:00 +20°C° 0 mm 3 mps 756 mmHg 50%
    14:00 +21°C° 0 mm 3 mps 756 mmHg 50%
    15:00 +21°C° 0 mm 4 mps 756 mmHg 51%
    16:00 +21°C° 0 mm 3 mps 756 mmHg 55%
    17:00 +20°C° 0 mm 3 mps 756 mmHg 59%
    18:00 +20°C° 0 mm 2 mps 756 mmHg 63%
    19:00 +18°C° 0 mm 2 mps 756 mmHg 69%
    20:00 +17°C° 0 mm 2 mps 756 mmHg 75%
    21:00 +15°C° 0 mm 1 mps 756 mmHg 81%
    22:00 +14°C° 0 mm 1 mps 756 mmHg 83%
    23:00 +14°C° 0 mm 1 mps 756 mmHg 84%
    Show more